TimeMDT,TemperatureF,Dew PointF,Humidity,Sea Level PressureIn,VisibilityMPH,Wind Direction,Wind SpeedMPH,Gust SpeedMPH,PrecipitationIn,Events,Conditions,WindDirDegrees,DateUTC
12:53 AM,24.1,19.0,81,30.03,10.0,Calm,Calm,-,0.20,,Clear,0,2013-10-30 06:53:00
1:53 AM,21.9,18.0,85,30.03,10.0,Calm,Calm,-,N/A,,Clear,0,2013-10-30 07:53:00
2:53 AM,21.9,18.0,85,30.02,10.0,Calm,Calm,-,0.40,,Clear,0,2013-10-30 08:53:00
3:53 AM,19.9,16.0,85,30.04,10.0,Calm,Calm,-,N/A,,Clear,0,2013-10-30 09:53:00
4:53 AM,21.0,17.1,85,30.03,10.0,Calm,Calm,-,N/A,,Clear,0,2013-10-30 10:53:00
5:53 AM,21.0,17.1,85,30.03,10.0,Calm,Calm,-,N/A,,Clear,0,2013-10-30 11:53:00
6:53 AM,17.1,12.9,84,30.06,10.0,Calm,Calm,-,N/A,,Clear,0,2013-10-30 12:53:00
7:53 AM,18.0,14.0,84,30.07,9.0,Calm,Calm,-,N/A,,Clear,0,2013-10-30 13:53:00
8:53 AM,21.9,17.1,82,30.07,10.0,Calm,Calm,-,N/A,,Clear,0,2013-10-30 14:53:00
9:53 AM,25.0,19.9,81,30.08,10.0,Calm,Calm,-,N/A,,Clear,0,2013-10-30 15:53:00
10:53 AM,28.0,21.9,78,30.08,10.0,Calm,Calm,-,N/A,,Clear,0,2013-10-30 16:53:00
11:53 AM,34.0,24.1,67,30.06,10.0,Calm,Calm,-,N/A,,Clear,0,2013-10-30 17:53:00
12:53 PM,39.9,27.0,60,30.02,10.0,ENE,3.5,-,N/A,,Clear,70,2013-10-30 18:53:00
1:53 PM,46.0,26.1,46,29.99,10.0,ENE,3.5,-,N/A,,Clear,60,2013-10-30 19:53:00
2:53 PM,48.9,25.0,39,29.96,10.0,West,11.5,-,N/A,,Clear,260,2013-10-30 20:53:00
3:53 PM,50.0,24.1,36,29.96,10.0,West,12.7,-,N/A,,Clear,270,2013-10-30 21:53:00
4:53 PM,48.9,24.1,38,29.98,10.0,WSW,9.2,-,N/A,,Clear,250,2013-10-30 22:53:00
5:53 PM,46.0,24.1,42,29.99,10.0,West,10.4,-,N/A,,Clear,270,2013-10-30 23:53:00
6:53 PM,42.1,23.0,47,30.04,10.0,West,6.9,-,N/A,,Clear,270,2013-10-31 00:53:00
7:53 PM,41.0,23.0,49,30.05,10.0,West,3.5,-,N/A,,Clear,270,2013-10-31 01:53:00
8:53 PM,39.9,23.0,51,30.04,10.0,West,6.9,-,N/A,,Clear,270,2013-10-31 02:53:00
9:53 PM,41.0,21.9,47,30.04,10.0,NNE,3.5,-,N/A,,Clear,20,2013-10-31 03:53:00
10:53 PM,43.0,23.0,45,30.02,10.0,Variable,3.5,-,N/A,,Mostly Cloudy,0,2013-10-31 04:53:00
11:53 PM,43.0,24.1,47,30.01,10.0,West,11.5,17.3,N/A,,Overcast,260,2013-10-31 05:53:00